| time (UTC) | temp F | wind direction | speed knots | gust knots | rain 1hr in | rain 24hr in | rain mn in | humidity % | barometer mb |
| 20260503032827 | 38 | 95 | 0.9 | 1.7 | 0.00 | 0.00 | 0.00 | 84 | 1018.4 |
| 20260503032007 | 37 | 107 | 0.9 | 1.7 | 0.00 | 0.00 | 0.00 | 84 | 1018.4 |
| 20260503031147 | 37 | 102 | 0.9 | 1.7 | 0.00 | 0.00 | 0.00 | 83 | 1018.4 |
| 20260503030326 | 37 | 101 | 0.9 | 1.7 | 0.00 | 0.00 | 0.00 | 82 | 1018.5 |
| 20260503025506 | 38 | 113 | 0.9 | 1.7 | 0.00 | 0.00 | 0.00 | 82 | 1018.7 |
| 20260503024646 | 37 | 88 | 0.0 | 1.7 | 0.00 | 0.00 | 0.00 | 80 | 1018.6 |
| 20260503023825 | 38 | 99 | 0.9 | 1.7 | 0.00 | 0.00 | 0.00 | 79 | 1018.7 |
| 20260503023005 | 38 | 105 | 0.9 | 1.7 | 0.00 | 0.00 | 0.00 | 77 | 1018.5 |
| 20260503022145 | 39 | 72 | 0.9 | 1.7 | 0.00 | 0.00 | 0.00 | 74 | 1018.6 |
| 20260503021325 | 40 | 74 | 0.0 | 1.7 | 0.00 | 0.00 | 0.00 | 73 | 1018.4 |
| 20260503020505 | 40 | 97 | 0.9 | 1.7 | 0.00 | 0.00 | 0.00 | 71 | 1018.5 |
| 20260503015644 | 41 | 93 | 0.9 | 1.7 | 0.00 | 0.00 | 0.00 | 68 | 1018.4 |
| 20260503014824 | 42 | 89 | 0.0 | 1.7 | 0.00 | 0.00 | 0.00 | 67 | 1018.5 |
| 20260503014004 | 42 | 94 | 0.9 | 1.7 | 0.00 | 0.00 | 0.00 | 62 | 1018.3 |
| 20260503013144 | 43 | 100 | 0.9 | 1.7 | 0.00 | 0.00 | 0.00 | 62 | 1018.4 |
| 20260503012323 | 43 | 107 | 0.9 | 1.7 | 0.00 | 0.00 | 0.00 | 64 | 1018.5 |
| 20260503011503 | 43 | 92 | 0.0 | 1.7 | 0.00 | 0.00 | 0.00 | 62 | 1018.3 |
| 20260503010643 | 44 | 86 | 0.0 | 1.7 | 0.00 | 0.00 | 0.00 | 61 | 1018.3 |
| 20260503005823 | 44 | 100 | 0.9 | 2.6 | 0.00 | 0.01 | 0.00 | 60 | 1018.2 |
| 20260503005003 | 45 | 105 | 0.0 | 2.6 | 0.00 | 0.01 | 0.00 | 60 | 1018.0 |
| 20260503004142 | 45 | 89 | 0.9 | 5.2 | 0.00 | 0.01 | 0.00 | 57 | 1018.2 |
| 20260503003322 | 45 | 105 | 0.9 | 5.2 | 0.00 | 0.01 | 0.00 | 57 | 1018.1 |
| 20260503002502 | 45 | 76 | 0.9 | 5.2 | 0.00 | 0.01 | 0.00 | 57 | 1018.1 |
| 20260503001642 | 45 | 70 | 0.9 | 6.1 | 0.00 | 0.01 | 0.00 | 59 | 1018.0 |
| 20260503000821 | 45 | 76 | 0.9 | 6.1 | 0.00 | 0.01 | 0.00 | 56 | 1018.0 |
| 20260503000001 | 46 | 51 | 1.7 | 7.8 | 0.00 | 0.01 | 0.00 | 55 | 1017.8 |
| 20260502235141 | 46 | 47 | 1.7 | 9.6 | 0.00 | 0.01 | 0.00 | 55 | 1017.7 |
| 20260502234321 | 46 | 53 | 0.9 | 5.2 | 0.00 | 0.01 | 0.00 | 53 | 1017.9 |
| 20260502233500 | 46 | 100 | 0.9 | 5.2 | 0.00 | 0.01 | 0.00 | 55 | 1018.0 |
| 20260502232640 | 46 | 75 | 0.9 | 9.6 | 0.00 | 0.01 | 0.00 | 53 | 1017.8 |
| 20260502231820 | 46 | 235 | 1.7 | 5.2 | 0.00 | 0.01 | 0.00 | 54 | 1017.8 |
| 20260502231000 | 46 | 146 | 1.7 | 6.1 | 0.00 | 0.01 | 0.00 | 51 | 1017.7 |
| 20260502230140 | 47 | 177 | 0.9 | 4.3 | 0.00 | 0.01 | 0.00 | 57 | 1017.8 |
| 20260502225319 | 46 | 53 | 1.7 | 7.0 | 0.00 | 0.01 | 0.00 | 54 | 1017.7 |
| 20260502224459 | 47 | 86 | 1.7 | 6.1 | 0.00 | 0.01 | 0.00 | 52 | 1017.8 |
| 20260502223639 | 47 | 46 | 1.7 | 10.4 | 0.00 | 0.01 | 0.00 | 50 | 1017.4 |
| 20260502222819 | 47 | 39 | 1.7 | 7.8 | 0.00 | 0.01 | 0.00 | 52 | 1017.7 |
| 20260502221959 | 48 | 318 | 2.6 | 8.7 | 0.00 | 0.01 | 0.00 | 52 | 1017.8 |
| 20260502221138 | 47 | 282 | 1.7 | 7.8 | 0.00 | 0.01 | 0.00 | 51 | 1017.7 |
| 20260502220318 | 48 | 266 | 2.6 | 11.3 | 0.00 | 0.01 | 0.00 | 50 | 1017.6 |
| 20260502215458 | 47 | 257 | 2.6 | 7.0 | 0.00 | 0.01 | 0.00 | 48 | 1017.5 |
| 20260502214638 | 48 | 269 | 1.7 | 7.8 | 0.00 | 0.01 | 0.00 | 49 | 1017.6 |
| 20260502213817 | 48 | 341 | 2.6 | 11.3 | 0.00 | 0.01 | 0.00 | 49 | 1017.7 |
| 20260502212957 | 48 | 360 | 1.7 | 8.7 | 0.00 | 0.01 | 0.00 | 46 | 1017.5 |
| 20260502212137 | 49 | 269 | 1.7 | 7.8 | 0.00 | 0.01 | 0.00 | 49 | 1017.2 |
| 20260502211317 | 49 | 258 | 1.7 | 7.8 | 0.00 | 0.01 | 0.00 | 51 | 1017.3 |
| 20260502210457 | 48 | 246 | 2.6 | 9.6 | 0.00 | 0.01 | 0.00 | 48 | 1017.5 |
| 20260502205636 | 48 | 267 | 1.7 | 8.7 | 0.00 | 0.01 | 0.00 | 48 | 1017.5 |
| 20260502204816 | 49 | 318 | 1.7 | 11.3 | 0.00 | 0.01 | 0.00 | 49 | 1017.4 |
| 20260502203956 | 49 | 25 | 2.6 | 15.6 | 0.00 | 0.01 | 0.00 | 50 | 1017.4 |
| 20260502203136 | 49 | 266 | 2.6 | 7.8 | 0.00 | 0.01 | 0.00 | 51 | 1017.4 |
| 20260502202315 | 49 | 287 | 2.6 | 11.3 | 0.00 | 0.01 | 0.00 | 48 | 1017.6 |
| 20260502201455 | 49 | 252 | 2.6 | 7.8 | 0.00 | 0.01 | 0.00 | 50 | 1017.6 |
| 20260502200635 | 50 | 261 | 2.6 | 15.6 | 0.00 | 0.01 | 0.00 | 51 | 1017.5 |
| 20260502195814 | 49 | 30 | 2.6 | 15.6 | 0.00 | 0.01 | 0.00 | 46 | 1017.4 |
| 20260502194954 | 50 | 327 | 2.6 | 12.2 | 0.00 | 0.01 | 0.00 | 48 | 1017.7 |
| 20260502194134 | 48 | 284 | 1.7 | 7.8 | 0.00 | 0.01 | 0.00 | 48 | 1017.8 |
| 20260502193314 | 49 | 308 | 2.6 | 8.7 | 0.00 | 0.01 | 0.00 | 48 | 1017.8 |
| 20260502192453 | 50 | 250 | 2.6 | 13.0 | 0.00 | 0.01 | 0.00 | 45 | 1017.5 |
| 20260502191633 | 50 | 252 | 3.5 | 13.0 | 0.00 | 0.01 | 0.00 | 49 | 1018.0 |
| 20260502190813 | 48 | 244 | 2.6 | 9.6 | 0.00 | 0.01 | 0.00 | 50 | 1017.7 |
| 20260502185953 | 51 | 46 | 2.6 | 8.7 | 0.00 | 0.01 | 0.00 | 48 | 1018.0 |
| 20260502185133 | 49 | 20 | 3.5 | 14.8 | 0.00 | 0.01 | 0.00 | 51 | 1017.8 |
| 20260502184313 | 49 | 27 | 4.3 | 14.8 | 0.00 | 0.01 | 0.00 | 49 | 1017.9 |
| 20260502183452 | 49 | 29 | 2.6 | 13.0 | 0.00 | 0.01 | 0.00 | 49 | 1018.0 |
| 20260502182632 | 49 | 26 | 3.5 | 13.9 | 0.00 | 0.01 | 0.00 | 53 | 1018.0 |
| 20260502181812 | 49 | 269 | 2.6 | 8.7 | 0.00 | 0.01 | 0.00 | 48 | 1017.9 |
| 20260502180952 | 49 | 260 | 3.5 | 9.6 | 0.00 | 0.01 | 0.00 | 50 | 1018.0 |
| 20260502180132 | 49 | 269 | 3.5 | 10.4 | 0.00 | 0.01 | 0.00 | 53 | 1018.2 |
| 20260502170311 | 47 | 256 | 3.5 | 9.6 | 0.00 | 0.01 | 0.00 | 51 | 1018.3 |
| 20260502163810 | 48 | 41 | 2.6 | 11.3 | 0.00 | 0.01 | 0.00 | 49 | 1018.4 |
| 20260502162950 | 47 | 264 | 2.6 | 11.3 | 0.00 | 0.01 | 0.00 | 53 | 1018.4 |
| 20260502162130 | 48 | 19 | 3.5 | 11.3 | 0.00 | 0.01 | 0.00 | 53 | 1018.3 |
| 20260502161310 | 48 | 254 | 2.6 | 7.8 | 0.00 | 0.02 | 0.00 | 57 | 1018.8 |
| 20260502160450 | 47 | 29 | 3.5 | 10.4 | 0.00 | 0.02 | 0.00 | 54 | 1018.4 |
| 20260502152309 | 47 | 8 | 2.6 | 13.0 | 0.00 | 0.04 | 0.00 | 57 | 1018.7 |
| 20260502151449 | 47 | 333 | 2.6 | 8.7 | 0.00 | 0.05 | 0.00 | 61 | 1018.4 |
| 20260502150629 | 46 | 333 | 2.6 | 9.6 | 0.00 | 0.05 | 0.00 | 60 | 1018.5 |
| 20260502130125 | 42 | 53 | 2.6 | 11.3 | 0.00 | 0.09 | 0.00 | 75 | 1018.2 |
| 20260502123624 | 40 | 244 | 1.7 | 6.1 | 0.00 | 0.09 | 0.00 | 78 | 1018.1 |
| 20260502122804 | 39 | 240 | 1.7 | 5.2 | 0.00 | 0.09 | 0.00 | 79 | 1017.9 |
| 20260502121943 | 37 | 248 | 1.7 | 6.1 | 0.00 | 0.09 | 0.00 | 84 | 1018.0 |
| 20260502121123 | 36 | 215 | 1.7 | 5.2 | 0.00 | 0.09 | 0.00 | 92 | 1017.9 |
| 20260502120303 | 35 | 240 | 1.7 | 6.1 | 0.00 | 0.09 | 0.00 | 98 | 1017.8 |
| 20260502115443 | 35 | 232 | 0.9 | 3.5 | 0.00 | 0.09 | 0.00 | 99 | 1017.7 |
| 20260502114623 | 35 | 227 | 0.9 | 2.6 | 0.00 | 0.09 | 0.00 | 99 | 1017.8 |
| 20260502113802 | 34 | 230 | 0.9 | 2.6 | 0.00 | 0.09 | 0.00 | 99 | 1017.7 |
| 20260502112942 | 33 | 103 | 0.0 | 2.6 | 0.00 | 0.09 | 0.00 | 99 | 1017.7 |
| 20260502112122 | 32 | 81 | 0.9 | 2.6 | 0.00 | 0.09 | 0.00 | 99 | 1017.8 |
| 20260502111302 | 32 | 76 | 0.9 | 1.7 | 0.00 | 0.09 | 0.00 | 99 | 1017.7 |
| 20260502110442 | 31 | 107 | 0.0 | 1.7 | 0.00 | 0.09 | 0.00 | 99 | 1017.6 |
| 20260502105622 | 32 | 114 | 0.0 | 1.7 | 0.00 | 0.09 | 0.00 | 99 | 1017.4 |
| 20260502104801 | 31 | 79 | 0.9 | 2.6 | 0.00 | 0.09 | 0.00 | 99 | 1017.6 |
| 20260502103941 | 31 | 75 | 0.9 | 2.6 | 0.00 | 0.09 | 0.00 | 99 | 1017.5 |
| 20260502103121 | 31 | 83 | 0.9 | 1.7 | 0.00 | 0.09 | 0.00 | 99 | 1017.7 |
| 20260502102301 | 31 | 93 | 0.9 | 2.6 | 0.00 | 0.09 | 0.00 | 99 | 1017.6 |
| 20260502101440 | 31 | 94 | 0.9 | 3.5 | 0.00 | 0.09 | 0.00 | 99 | 1017.6 |
| 20260502100620 | 31 | 88 | 0.9 | 3.5 | 0.00 | 0.09 | 0.00 | 99 | 1017.4 |
| 20260502090758 | 33 | 67 | 0.9 | 2.6 | 0.00 | 0.09 | 0.00 | 99 | 1017.6 |
| 20260502071116 | 34 | 65 | 0.9 | 2.6 | 0.00 | 0.09 | 0.00 | 98 | 1017.6 |
| 20260502070256 | 35 | 65 | 0.0 | 2.6 | 0.00 | 0.09 | 0.00 | 98 | 1017.4 |
| 20260502065436 | 35 | 70 | 0.0 | 1.7 | 0.00 | 0.09 | 0.00 | 98 | 1017.4 |
| 20260502064615 | 35 | 84 | 0.9 | 1.7 | 0.00 | 0.09 | 0.00 | 98 | 1017.5 |
| 20260502063755 | 34 | 72 | 0.9 | 2.6 | 0.00 | 0.09 | 0.00 | 98 | 1017.6 |
| 20260502062935 | 35 | 81 | 0.9 | 1.7 | 0.00 | 0.09 | 0.00 | 98 | 1017.6 |
| 20260502062115 | 35 | 83 | 0.9 | 2.6 | 0.00 | 0.09 | 0.00 | 98 | 1017.8 |
| 20260502061254 | 35 | 103 | 0.9 | 2.6 | 0.00 | 0.09 | 0.00 | 98 | 1017.5 |
| 20260502060434 | 36 | 91 | 0.0 | 1.7 | 0.00 | 0.09 | 0.00 | 98 | 1017.6 |
| 20260502055614 | 36 | 84 | 0.9 | 2.6 | 0.00 | 0.09 | 0.00 | 98 | 1017.6 |
| 20260502054753 | 35 | 89 | 0.9 | 1.7 | 0.00 | 0.09 | 0.00 | 98 | 1017.8 |
| 20260502053933 | 36 | 87 | 0.9 | 1.7 | 0.00 | 0.09 | 0.00 | 98 | 1017.9 |
| 20260502053113 | 36 | 108 | 0.0 | 1.7 | 0.00 | 0.09 | 0.00 | 98 | 1017.9 |
| 20260502052253 | 36 | 91 | 0.9 | 2.6 | 0.00 | 0.09 | 0.00 | 98 | 1017.9 |
| 20260502051432 | 36 | 88 | 0.9 | 2.6 | 0.00 | 0.09 | 0.00 | 98 | 1017.8 |
| 20260502050612 | 36 | 64 | 0.0 | 1.7 | 0.00 | 0.09 | 0.00 | 98 | 1017.9 |
| 20260502045752 | 36 | 85 | 0.0 | 1.7 | 0.00 | 0.09 | 0.00 | 98 | 1017.8 |
| 20260502044932 | 36 | 73 | 0.0 | 1.7 | 0.00 | 0.09 | 0.00 | 98 | 1017.6 |
| 20260502044111 | 36 | 90 | 0.9 | 1.7 | 0.00 | 0.09 | 0.00 | 97 | 1017.7 |
| 20260502043251 | 37 | 87 | 0.9 | 2.6 | 0.00 | 0.09 | 0.00 | 97 | 1017.5 |
| 20260502042431 | 37 | 82 | 0.9 | 2.6 | 0.00 | 0.09 | 0.00 | 97 | 1017.8 |
| 20260502041611 | 37 | 99 | 0.9 | 2.6 | 0.00 | 0.09 | 0.00 | 97 | 1017.8 |
| 20260502040751 | 38 | 114 | 0.9 | 2.6 | 0.00 | 0.09 | 0.00 | 97 | 1017.7 |
| 20260502035930 | 37 | 102 | 0.9 | 2.6 | 0.00 | 0.09 | 0.09 | 97 | 1017.7 |
| 20260502035110 | 37 | 91 | 0.9 | 1.7 | 0.00 | 0.09 | 0.09 | 97 | 1017.7 |
| 20260502034250 | 38 | 103 | 0.9 | 1.7 | 0.00 | 0.09 | 0.09 | 97 | 1017.6 |
| 20260502033430 | 38 | 107 | 0.9 | 1.7 | 0.00 | 0.09 | 0.09 | 97 | 1017.6 |